,,PressureMeas_1m,,PRMeasQMR101_1,,RHStat155_1m_1,,SRMeasQMS101R_1m,,TAStat155_1m_1,,GenWind_1,,GenWind_1,
2019-03-13, 07:00:06,VALID,919.962,VALID,0.0,VALID,94.756,VALID,98.913,VALID,18.6,VALID,114.0,VALID,0.0,
2019-03-13, 07:01:06,VALID,919.999,VALID,0.0,VALID,94.435,VALID,102.155,VALID,18.644,VALID,116.0,VALID,0.0,
2019-03-13, 07:02:06,VALID,920.014,VALID,0.0,VALID,94.444,VALID,105.212,VALID,18.674,VALID,121.0,VALID,0.0,
2019-03-13, 07:03:06,VALID,920.036,VALID,0.0,VALID,94.754,VALID,108.492,VALID,18.715,VALID,121.0,VALID,0.0,
2019-03-13, 07:04:06,VALID,920.055,VALID,0.0,VALID,94.647,VALID,111.831,VALID,18.753,VALID,118.0,VALID,0.0,
2019-03-13, 07:05:06,VALID,920.062,VALID,0.0,VALID,94.603,VALID,114.624,VALID,18.824,VALID,118.0,VALID,0.0,
2019-03-13, 07:06:06,VALID,920.064,VALID,0.0,VALID,94.341,VALID,114.958,VALID,18.881,VALID,118.0,VALID,0.0,
2019-03-13, 07:07:06,VALID,920.093,VALID,0.0,VALID,94.197,VALID,107.53,VALID,18.924,VALID,115.0,VALID,0.0,
2019-03-13, 07:08:06,VALID,920.102,VALID,0.0,VALID,94.042,VALID,99.931,VALID,18.97,VALID,118.0,VALID,0.0,
2019-03-13, 07:09:06,VALID,920.113,VALID,0.0,VALID,93.946,VALID,97.243,VALID,18.995,VALID,119.0,VALID,0.0,
2019-03-13, 07:10:06,VALID,920.097,VALID,0.0,VALID,93.317,VALID,89.207,VALID,18.992,VALID,123.0,VALID,0.0,
2019-03-13, 07:11:06,VALID,920.098,VALID,0.0,VALID,93.518,VALID,77.739,VALID,19.024,VALID,124.0,VALID,0.0,
2019-03-13, 07:12:06,VALID,920.086,VALID,0.0,VALID,93.345,VALID,67.781,VALID,19.029,VALID,133.0,VALID,0.0,
2019-03-13, 07:13:06,VALID,920.106,VALID,0.0,VALID,93.281,VALID,56.123,VALID,19.049,VALID,126.0,VALID,0.0,
2019-03-13, 07:14:06,VALID,920.1,VALID,0.0,VALID,92.946,VALID,44.99,VALID,19.048,VALID,125.0,VALID,0.0,
2019-03-13, 07:15:06,VALID,920.098,VALID,0.0,VALID,92.889,VALID,40.949,VALID,18.994,VALID,124.0,VALID,0.0,
2019-03-13, 07:16:06,VALID,920.111,VALID,0.0,VALID,93.055,VALID,40.019,VALID,18.93,VALID,124.0,VALID,0.0,
2019-03-13, 07:17:06,VALID,920.113,VALID,0.0,VALID,93.254,VALID,40.644,VALID,18.877,VALID,127.0,VALID,0.0,
2019-03-13, 07:18:06,VALID,920.108,VALID,0.0,VALID,93.494,VALID,41.675,VALID,18.845,VALID,125.0,VALID,0.0,
2019-03-13, 07:19:06,VALID,920.121,VALID,0.0,VALID,93.489,VALID,42.615,VALID,18.81,VALID,118.0,VALID,0.0,
2019-03-13, 07:20:06,VALID,920.11,VALID,0.0,VALID,93.679,VALID,43.59,VALID,18.768,VALID,115.0,VALID,0.0,
2019-03-13, 07:21:06,VALID,920.113,VALID,0.0,VALID,93.9,VALID,43.893,VALID,18.731,VALID,120.0,VALID,0.0,
2019-03-13, 07:22:06,VALID,920.116,VALID,0.0,VALID,94.075,VALID,43.941,VALID,18.688,VALID,122.0,VALID,0.0,
2019-03-13, 07:23:06,VALID,920.122,VALID,0.0,VALID,94.253,VALID,43.865,VALID,18.646,VALID,121.0,VALID,0.0,
2019-03-13, 07:24:06,VALID,920.128,VALID,0.0,VALID,94.452,VALID,44.414,VALID,18.616,VALID,114.0,VALID,0.0,
2019-03-13, 07:25:06,VALID,920.12,VALID,0.0,VALID,94.701,VALID,46.289,VALID,18.616,VALID,101.0,VALID,0.0,
2019-03-13, 07:26:06,VALID,920.113,VALID,0.0,VALID,94.855,VALID,46.934,VALID,18.63,VALID,101.0,VALID,0.0,
2019-03-13, 07:27:06,VALID,920.116,VALID,0.0,VALID,95.064,VALID,47.003,VALID,18.663,VALID,95.0,VALID,0.0,
2019-03-13, 07:28:06,VALID,920.107,VALID,0.0,VALID,94.993,VALID,47.892,VALID,18.669,VALID,86.0,VALID,0.0,
2019-03-13, 07:29:06,VALID,920.103,VALID,0.0,VALID,94.647,VALID,48.337,VALID,18.687,VALID,87.0,VALID,0.0,
2019-03-13, 07:30:06,VALID,920.12,VALID,0.0,VALID,94.393,VALID,49.573,VALID,18.697,VALID,89.0,VALID,0.0,
2019-03-13, 07:31:06,VALID,920.109,VALID,0.0,VALID,94.275,VALID,50.729,VALID,18.688,VALID,89.0,VALID,0.0,
2019-03-13, 07:32:06,VALID,920.125,VALID,0.0,VALID,94.148,VALID,50.715,VALID,18.677,VALID,90.0,VALID,0.0,
2019-03-13, 07:33:06,VALID,920.136,VALID,0.0,VALID,94.038,VALID,51.621,VALID,18.666,VALID,90.0,VALID,0.0,
2019-03-13, 07:34:06,VALID,920.14,VALID,0.0,VALID,94.122,VALID,51.257,VALID,18.665,VALID,94.0,VALID,0.0,
2019-03-13, 07:35:06,VALID,920.148,VALID,0.0,VALID,94.222,VALID,50.335,VALID,18.657,VALID,106.0,VALID,0.0,
2019-03-13, 07:36:06,VALID,920.162,VALID,0.0,VALID,94.326,VALID,49.357,VALID,18.659,VALID,101.0,VALID,0.0,
2019-03-13, 07:37:06,VALID,920.165,VALID,0.0,VALID,94.348,VALID,49.385,VALID,18.658,VALID,102.0,VALID,0.0,
2019-03-13, 07:38:06,VALID,920.165,VALID,0.0,VALID,94.436,VALID,50.505,VALID,18.667,VALID,98.0,VALID,0.0,
2019-03-13, 07:39:06,VALID,920.161,VALID,0.0,VALID,94.437,VALID,52.559,VALID,18.672,VALID,101.0,VALID,0.0,
2019-03-13, 07:40:06,VALID,920.161,VALID,0.0,VALID,94.532,VALID,56.947,VALID,18.668,VALID,104.0,VALID,0.0,
2019-03-13, 07:41:06,VALID,920.151,VALID,0.0,VALID,94.651,VALID,64.901,VALID,18.661,VALID,103.0,VALID,0.0,
2019-03-13, 07:42:06,VALID,920.129,VALID,0.0,VALID,94.52,VALID,70.241,VALID,18.67,VALID,102.0,VALID,0.0,
2019-03-13, 07:43:06,VALID,920.139,VALID,0.0,VALID,94.42,VALID,70.394,VALID,18.728,VALID,102.0,VALID,0.0,
2019-03-13, 07:44:06,VALID,920.152,VALID,0.0,VALID,94.166,VALID,71.367,VALID,18.8,VALID,98.0,VALID,0.0,
2019-03-13, 07:45:06,VALID,920.122,VALID,0.0,VALID,93.943,VALID,73.927,VALID,18.844,VALID,102.0,VALID,0.0,
2019-03-13, 07:46:06,VALID,920.12,VALID,0.0,VALID,93.362,VALID,77.215,VALID,18.889,VALID,106.0,VALID,0.0,
2019-03-13, 07:47:06,VALID,920.118,VALID,0.0,VALID,93.125,VALID,79.38,VALID,18.956,VALID,101.0,VALID,0.0,
2019-03-13, 07:48:06,VALID,920.126,VALID,0.0,VALID,93.058,VALID,86.102,VALID,19.003,VALID,99.0,VALID,0.0,
2019-03-13, 07:49:06,VALID,920.132,VALID,0.0,VALID,92.846,VALID,96.745,VALID,19.031,VALID,100.0,VALID,0.0,
2019-03-13, 07:50:06,VALID,920.136,VALID,0.0,VALID,92.471,VALID,106.088,VALID,19.046,VALID,98.0,VALID,0.0,
2019-03-13, 07:51:06,VALID,920.155,VALID,0.0,VALID,92.343,VALID,106.155,VALID,19.094,VALID,100.0,VALID,0.0,
2019-03-13, 07:52:06,VALID,920.151,VALID,0.0,VALID,92.05,VALID,107.39,VALID,19.175,VALID,95.0,VALID,0.0,
2019-03-13, 07:53:06,VALID,920.186,VALID,0.0,VALID,91.685,VALID,111.942,VALID,19.209,VALID,91.0,VALID,0.0,
2019-03-13, 07:54:06,VALID,920.183,VALID,0.0,VALID,91.71,VALID,120.215,VALID,19.227,VALID,88.0,VALID,0.0,
2019-03-13, 07:55:06,VALID,920.203,VALID,0.0,VALID,91.239,VALID,129.233,VALID,19.26,VALID,95.0,VALID,0.0,
2019-03-13, 07:56:06,VALID,920.209,VALID,0.0,VALID,91.547,VALID,145.408,VALID,19.347,VALID,102.0,VALID,0.0,
2019-03-13, 07:57:06,VALID,920.215,VALID,0.0,VALID,91.769,VALID,146.166,VALID,19.483,VALID,104.0,VALID,0.0,
2019-03-13, 07:58:06,VALID,920.226,VALID,0.0,VALID,91.47,VALID,149.182,VALID,19.591,VALID,110.0,VALID,0.0,
2019-03-13, 07:59:06,VALID,920.238,VALID,0.0,VALID,90.444,VALID,142.99,VALID,19.64,VALID,109.0,VALID,0.0,
2019-03-13, 08:00:06,VALID,920.228,VALID,0.0,VALID,90.486,VALID,145.188,VALID,19.689,VALID,109.0,VALID,0.0,
2019-03-13, 08:01:06,VALID,920.228,VALID,0.0,VALID,91.049,VALID,152.634,VALID,19.734,VALID,105.0,VALID,0.0,
2019-03-13, 08:02:06,VALID,920.228,VALID,0.0,VALID,90.739,VALID,168.36,VALID,19.781,VALID,107.0,VALID,0.0,
2019-03-13, 08:03:06,VALID,920.236,VALID,0.0,VALID,90.345,VALID,177.507,VALID,19.807,VALID,108.0,VALID,0.0,
2019-03-13, 08:04:06,VALID,920.232,VALID,0.0,VALID,90.274,VALID,188.823,VALID,19.836,VALID,107.0,VALID,0.0,
2019-03-13, 08:05:06,VALID,920.234,VALID,0.0,VALID,91.024,VALID,228.076,VALID,19.912,VALID,112.0,VALID,0.0,
2019-03-13, 08:06:06,VALID,920.261,VALID,0.0,VALID,89.903,VALID,239.523,VALID,19.931,VALID,119.0,VALID,0.0,
2019-03-13, 08:07:06,VALID,920.261,VALID,0.0,VALID,90.875,VALID,255.004,VALID,19.991,VALID,111.0,VALID,0.0,
2019-03-13, 08:08:06,VALID,920.273,VALID,0.0,VALID,91.046,VALID,262.615,VALID,20.132,VALID,95.0,VALID,0.0,
2019-03-13, 08:09:06,VALID,920.256,VALID,0.0,VALID,91.436,VALID,283.462,VALID,20.338,VALID,69.0,VALID,0.0,
2019-03-13, 08:10:06,VALID,920.241,VALID,0.0,VALID,88.998,VALID,287.439,VALID,20.5,VALID,82.0,VALID,0.0,
2019-03-13, 08:11:06,VALID,920.242,VALID,0.0,VALID,87.127,VALID,284.795,VALID,20.643,VALID,94.0,VALID,0.0,
2019-03-13, 08:12:06,VALID,920.241,VALID,0.0,VALID,85.395,VALID,301.844,VALID,20.774,VALID,94.0,VALID,0.0,
2019-03-13, 08:13:06,VALID,920.235,VALID,0.0,VALID,85.136,VALID,299.05,VALID,20.894,VALID,85.0,VALID,0.0,
2019-03-13, 08:14:06,VALID,920.237,VALID,0.0,VALID,85.688,VALID,282.889,VALID,21.012,VALID,90.0,VALID,0.0,
2019-03-13, 08:15:06,VALID,920.246,VALID,0.0,VALID,85.005,VALID,244.583,VALID,21.141,VALID,88.0,VALID,0.0,
2019-03-13, 08:16:06,VALID,920.233,VALID,0.0,VALID,85.294,VALID,186.769,VALID,21.26,VALID,122.0,VALID,0.0,
2019-03-13, 08:17:06,VALID,920.226,VALID,0.0,VALID,83.598,VALID,166.025,VALID,21.397,VALID,125.0,VALID,0.0,
2019-03-13, 08:18:06,VALID,920.223,VALID,0.0,VALID,83.094,VALID,194.877,VALID,21.471,VALID,122.0,VALID,0.0,
2019-03-13, 08:19:06,VALID,920.214,VALID,0.0,VALID,83.223,VALID,226.148,VALID,21.462,VALID,129.0,VALID,0.0,
2019-03-13, 08:20:06,VALID,920.217,VALID,0.0,VALID,82.869,VALID,251.879,VALID,21.417,VALID,128.0,VALID,0.0,
2019-03-13, 08:21:06,VALID,920.204,VALID,0.0,VALID,83.733,VALID,265.868,VALID,21.316,VALID,124.0,VALID,0.0,
2019-03-13, 08:22:06,VALID,920.215,VALID,0.0,VALID,83.105,VALID,270.669,VALID,21.183,VALID,117.0,VALID,0.0,
2019-03-13, 08:23:06,VALID,920.224,VALID,0.0,VALID,83.413,VALID,276.967,VALID,21.076,VALID,121.0,VALID,0.0,
2019-03-13, 08:24:06,VALID,920.242,VALID,0.0,VALID,83.752,VALID,292.132,VALID,20.978,VALID,124.0,VALID,0.0,
2019-03-13, 08:25:06,VALID,920.245,VALID,0.0,VALID,84.774,VALID,292.447,VALID,20.982,VALID,119.0,VALID,0.0,
2019-03-13, 08:26:06,VALID,920.239,VALID,0.0,VALID,85.167,VALID,286.895,VALID,21.08,VALID,112.0,VALID,0.0,
2019-03-13, 08:27:06,VALID,920.236,VALID,0.0,VALID,85.775,VALID,283.382,VALID,21.257,VALID,112.0,VALID,0.0,
2019-03-13, 08:28:06,VALID,920.227,VALID,0.0,VALID,85.426,VALID,293.947,VALID,21.448,VALID,98.0,VALID,0.0,
2019-03-13, 08:29:06,VALID,920.227,VALID,0.0,VALID,83.493,VALID,296.958,VALID,21.678,VALID,89.0,VALID,0.0,
2019-03-13, 08:30:06,VALID,920.205,VALID,0.0,VALID,83.495,VALID,300.066,VALID,21.87,VALID,116.0,VALID,0.0,
2019-03-13, 08:31:06,VALID,920.22,VALID,0.0,VALID,81.934,VALID,308.329,VALID,21.896,VALID,126.0,VALID,0.0,
2019-03-13, 08:32:06,VALID,920.223,VALID,0.0,VALID,81.602,VALID,324.479,VALID,21.923,VALID,122.0,VALID,0.0,
2019-03-13, 08:33:06,VALID,920.23,VALID,0.0,VALID,81.298,VALID,335.206,VALID,21.886,VALID,125.0,VALID,0.0,
2019-03-13, 08:34:06,VALID,920.241,VALID,0.0,VALID,82.335,VALID,348.276,VALID,21.905,VALID,121.0,VALID,0.0,
2019-03-13, 08:35:06,VALID,920.235,VALID,0.0,VALID,82.611,VALID,345.183,VALID,22.016,VALID,115.0,VALID,0.0,
2019-03-13, 08:36:06,VALID,920.234,VALID,0.0,VALID,80.955,VALID,339.875,VALID,22.158,VALID,123.0,VALID,0.0,
2019-03-13, 08:37:06,VALID,920.264,VALID,0.0,VALID,80.496,VALID,314.568,VALID,22.233,VALID,128.0,VALID,0.0,
2019-03-13, 08:38:06,VALID,920.262,VALID,0.0,VALID,80.018,VALID,281.721,VALID,22.241,VALID,128.0,VALID,0.0,
2019-03-13, 08:39:06,VALID,920.255,VALID,0.0,VALID,79.987,VALID,252.125,VALID,22.237,VALID,120.0,VALID,0.0,
2019-03-13, 08:40:06,VALID,920.271,VALID,0.0,VALID,79.167,VALID,230.693,VALID,22.117,VALID,123.0,VALID,0.0,
2019-03-13, 08:41:06,VALID,920.267,VALID,0.0,VALID,80.929,VALID,223.655,VALID,22.071,VALID,136.0,VALID,0.0,
2019-03-13, 08:42:06,VALID,920.264,VALID,0.0,VALID,80.435,VALID,250.629,VALID,22.183,VALID,127.0,VALID,0.0,
2019-03-13, 08:43:06,VALID,920.253,VALID,0.0,VALID,80.055,VALID,254.83,VALID,22.224,VALID,121.0,VALID,0.0,
2019-03-13, 08:44:06,VALID,920.259,VALID,0.0,VALID,79.213,VALID,292.208,VALID,22.146,VALID,123.0,VALID,0.0,
2019-03-13, 08:45:06,VALID,920.241,VALID,0.0,VALID,79.501,VALID,320.176,VALID,21.944,VALID,127.0,VALID,0.0,
2019-03-13, 08:46:06,VALID,920.243,VALID,0.0,VALID,80.697,VALID,356.896,VALID,21.917,VALID,126.0,VALID,0.0,
2019-03-13, 08:47:06,VALID,920.27,VALID,0.0,VALID,80.311,VALID,368.509,VALID,21.974,VALID,126.0,VALID,0.0,
2019-03-13, 08:48:06,VALID,920.278,VALID,0.0,VALID,79.955,VALID,360.737,VALID,21.955,VALID,124.0,VALID,0.0,
2019-03-13, 08:49:06,VALID,920.284,VALID,0.0,VALID,79.558,VALID,330.606,VALID,21.924,VALID,130.0,VALID,0.0,
2019-03-13, 08:50:06,VALID,920.294,VALID,0.0,VALID,80.075,VALID,346.375,VALID,21.998,VALID,128.0,VALID,0.0,
2019-03-13, 08:51:06,VALID,920.297,VALID,0.0,VALID,81.473,VALID,360.322,VALID,22.062,VALID,117.0,VALID,0.0,
2019-03-13, 08:52:06,VALID,920.298,VALID,0.0,VALID,80.934,VALID,363.983,VALID,22.211,VALID,107.0,VALID,0.0,
2019-03-13, 08:53:06,VALID,920.289,VALID,0.0,VALID,81.096,VALID,421.073,VALID,22.365,VALID,121.0,VALID,0.0,
2019-03-13, 08:54:06,VALID,920.312,VALID,0.0,VALID,79.184,VALID,461.509,VALID,22.51,VALID,104.0,VALID,0.0,
2019-03-13, 08:55:06,VALID,920.298,VALID,0.0,VALID,78.685,VALID,476.711,VALID,22.711,VALID,125.0,VALID,0.0,
2019-03-13, 08:56:06,VALID,920.294,VALID,0.0,VALID,77.85,VALID,485.973,VALID,22.847,VALID,120.0,VALID,0.0,
2019-03-13, 08:57:06,VALID,920.296,VALID,0.0,VALID,77.59,VALID,500.644,VALID,23.032,VALID,107.0,VALID,0.0,
2019-03-13, 08:58:06,VALID,920.315,VALID,0.0,VALID,75.572,VALID,526.475,VALID,23.371,VALID,125.0,VALID,0.0,
2019-03-13, 08:59:06,VALID,920.309,VALID,0.0,VALID,74.411,VALID,531.009,VALID,23.437,VALID,126.0,VALID,0.0,
2019-03-13, 09:00:06,VALID,920.317,VALID,0.0,VALID,73.797,VALID,541.941,VALID,23.512,VALID,124.0,VALID,0.0,
2019-03-13, 09:01:06,VALID,920.316,VALID,0.0,VALID,72.035,VALID,549.77,VALID,23.658,VALID,113.0,VALID,0.0,
2019-03-13, 09:02:06,VALID,920.322,VALID,0.0,VALID,71.584,VALID,550.681,VALID,23.707,VALID,120.0,VALID,0.0,
2019-03-13, 09:03:06,VALID,920.336,VALID,0.0,VALID,68.804,VALID,546.685,VALID,23.749,VALID,132.0,VALID,0.0,
2019-03-13, 09:04:06,VALID,920.338,VALID,0.0,VALID,68.924,VALID,551.507,VALID,24.037,VALID,133.0,VALID,0.0,
2019-03-13, 09:05:06,VALID,920.332,VALID,0.0,VALID,67.059,VALID,557.704,VALID,24.206,INVALID,360.0,VALID,0.0,
2019-03-13, 09:06:06,VALID,920.35,VALID,0.0,VALID,67.398,VALID,562.503,VALID,24.292,INVALID,360.0,VALID,0.0,
2019-03-13, 09:07:06,VALID,920.354,VALID,0.0,VALID,66.072,VALID,563.32,VALID,24.402,INVALID,360.0,VALID,0.0,
2019-03-13, 09:08:06,VALID,920.344,VALID,0.0,VALID,66.221,VALID,561.508,VALID,24.275,INVALID,360.0,VALID,0.0,
2019-03-13, 09:09:06,VALID,920.351,VALID,0.0,VALID,66.799,VALID,564.509,VALID,24.232,INVALID,360.0,VALID,0.0,
2019-03-13, 09:10:06,VALID,920.337,VALID,0.0,VALID,66.949,VALID,570.256,VALID,24.125,INVALID,360.0,VALID,0.0,
2019-03-13, 09:11:06,VALID,920.339,VALID,0.0,VALID,66.849,VALID,576.32,VALID,24.246,INVALID,360.0,VALID,0.0,
2019-03-13, 09:12:06,VALID,920.341,VALID,0.0,VALID,65.414,VALID,579.616,VALID,24.611,INVALID,360.0,VALID,0.0,
2019-03-13, 09:13:06,VALID,920.332,VALID,0.0,VALID,65.378,VALID,587.953,VALID,24.812,INVALID,360.0,VALID,0.0,
2019-03-13, 09:14:06,VALID,920.344,VALID,0.0,VALID,65.89,VALID,595.595,VALID,24.877,VALID,56.0,VALID,0.0,
2019-03-13, 09:15:06,VALID,920.349,VALID,0.0,VALID,67.237,VALID,604.115,VALID,25.136,VALID,80.0,VALID,0.0,
2019-03-13, 09:16:06,VALID,920.349,VALID,0.0,VALID,65.934,VALID,601.979,VALID,25.343,VALID,59.0,VALID,0.0,
2019-03-13, 09:17:06,VALID,920.347,VALID,0.0,VALID,64.644,VALID,598.412,VALID,25.267,VALID,63.0,VALID,0.0,
2019-03-13, 09:18:06,VALID,920.339,VALID,0.0,VALID,63.412,VALID,603.399,VALID,25.159,VALID,83.0,VALID,0.0,
2019-03-13, 09:19:06,VALID,920.352,VALID,0.0,VALID,63.462,VALID,606.783,VALID,25.202,VALID,130.0,VALID,0.0,
2019-03-13, 09:20:06,VALID,920.341,VALID,0.0,VALID,64.948,VALID,612.831,VALID,25.247,VALID,22.0,VALID,0.0,
2019-03-13, 09:21:06,VALID,920.363,VALID,0.0,VALID,64.204,VALID,607.887,VALID,25.599,VALID,333.0,VALID,0.0,
2019-03-13, 09:22:06,VALID,920.365,VALID,0.0,VALID,64.613,VALID,602.069,VALID,25.79,VALID,35.0,VALID,0.0,
2019-03-13, 09:23:06,VALID,920.371,VALID,0.0,VALID,63.401,VALID,592.038,VALID,25.778,VALID,51.0,VALID,0.0,
2019-03-13, 09:24:06,VALID,920.383,VALID,0.0,VALID,63.559,VALID,586.633,VALID,25.573,VALID,52.0,VALID,0.0,
2019-03-13, 09:25:06,VALID,920.388,VALID,0.0,VALID,64.364,VALID,583.175,VALID,25.49,VALID,111.0,VALID,0.0,
2019-03-13, 09:26:06,VALID,920.385,VALID,0.0,VALID,61.766,VALID,588.577,VALID,25.603,VALID,114.0,VALID,0.0,
2019-03-13, 09:27:06,VALID,920.394,VALID,0.0,VALID,63.256,VALID,603.231,VALID,25.765,VALID,88.0,VALID,0.0,
2019-03-13, 09:28:06,VALID,920.396,VALID,0.0,VALID,61.46,VALID,612.749,VALID,25.831,VALID,186.0,VALID,0.0,
2019-03-13, 09:29:06,VALID,920.418,VALID,0.0,VALID,61.862,VALID,620.244,VALID,25.637,VALID,113.0,VALID,0.0,
2019-03-13, 09:30:06,VALID,920.428,VALID,0.0,VALID,62.171,VALID,625.463,VALID,25.822,VALID,78.0,VALID,0.0,
2019-03-13, 09:31:06,VALID,920.417,VALID,0.0,VALID,61.954,VALID,626.826,VALID,26.241,VALID,53.0,VALID,0.0,
2019-03-13, 09:32:06,VALID,920.432,VALID,0.0,VALID,60.173,VALID,629.974,VALID,26.648,VALID,52.0,VALID,0.0,
2019-03-13, 09:33:06,VALID,920.414,VALID,0.0,VALID,59.152,VALID,646.157,VALID,26.812,VALID,48.0,VALID,0.0,
2019-03-13, 09:34:06,VALID,920.405,VALID,0.0,VALID,61.628,VALID,666.554,VALID,26.711,INVALID,360.0,VALID,0.0,
2019-03-13, 09:35:06,VALID,920.392,VALID,0.0,VALID,62.657,VALID,677.031,VALID,26.587,INVALID,360.0,VALID,0.0,
2019-03-13, 09:36:06,VALID,920.379,VALID,0.0,VALID,62.015,VALID,685.408,VALID,26.144,INVALID,360.0,VALID,0.0,
2019-03-13, 09:37:06,VALID,920.361,VALID,0.0,VALID,63.951,VALID,690.166,VALID,25.983,INVALID,360.0,VALID,0.0,
2019-03-13, 09:38:06,VALID,920.329,VALID,0.0,VALID,65.05,VALID,706.616,VALID,26.03,INVALID,360.0,VALID,0.0,
2019-03-13, 09:39:06,VALID,920.319,VALID,0.0,VALID,64.354,VALID,703.983,VALID,25.923,INVALID,360.0,VALID,0.0,
2019-03-13, 09:40:06,VALID,920.316,VALID,0.0,VALID,64.016,VALID,712.419,VALID,25.756,INVALID,360.0,VALID,0.0,
2019-03-13, 09:41:06,VALID,920.321,VALID,0.0,VALID,65.05,VALID,720.451,VALID,25.704,INVALID,360.0,VALID,0.0,
2019-03-13, 09:42:06,VALID,920.325,VALID,0.0,VALID,65.185,VALID,719.73,VALID,25.411,INVALID,360.0,VALID,0.0,
2019-03-13, 09:43:06,VALID,920.338,VALID,0.0,VALID,64.698,VALID,724.735,VALID,25.453,INVALID,360.0,VALID,0.0,
2019-03-13, 09:44:06,VALID,920.33,VALID,0.0,VALID,64.056,VALID,730.086,VALID,25.619,INVALID,360.0,VALID,0.0,
2019-03-13, 09:45:06,VALID,920.338,VALID,0.0,VALID,65.328,VALID,732.123,VALID,25.731,INVALID,360.0,VALID,0.0,
2019-03-13, 09:46:06,VALID,920.352,VALID,0.0,VALID,65.789,VALID,730.884,VALID,26.07,INVALID,360.0,VALID,0.0,
2019-03-13, 09:47:06,VALID,920.372,VALID,0.0,VALID,63.741,VALID,723.342,VALID,26.467,INVALID,360.0,VALID,0.0,
2019-03-13, 09:48:06,VALID,920.382,VALID,0.0,VALID,62.834,VALID,721.601,VALID,26.468,INVALID,360.0,VALID,0.0,
2019-03-13, 09:49:06,VALID,920.372,VALID,0.0,VALID,61.229,VALID,740.666,VALID,26.69,INVALID,360.0,VALID,0.0,
2019-03-13, 09:50:06,VALID,920.377,VALID,0.0,VALID,59.296,VALID,744.325,VALID,26.962,INVALID,360.0,VALID,0.0,
2019-03-13, 09:51:06,VALID,920.37,VALID,0.0,VALID,58.647,VALID,744.899,VALID,26.873,INVALID,360.0,VALID,0.0,
2019-03-13, 09:52:06,VALID,920.36,VALID,0.0,VALID,61.888,VALID,737.433,VALID,26.812,INVALID,360.0,VALID,0.0,
2019-03-13, 09:53:06,VALID,920.345,VALID,0.0,VALID,61.904,VALID,738.301,VALID,26.891,INVALID,360.0,VALID,0.0,
2019-03-13, 09:54:06,VALID,920.341,VALID,0.0,VALID,60.998,VALID,741.734,VALID,26.99,VALID,181.0,VALID,0.0,
2019-03-13, 09:55:06,VALID,920.333,VALID,0.0,VALID,60.01,VALID,746.638,VALID,26.912,VALID,208.0,VALID,0.0,
2019-03-13, 09:56:06,VALID,920.333,VALID,0.0,VALID,60.243,VALID,729.518,VALID,26.593,VALID,255.0,VALID,0.0,
2019-03-13, 09:57:06,VALID,920.339,VALID,0.0,VALID,60.398,VALID,737.742,VALID,26.455,VALID,250.0,VALID,0.0,
2019-03-13, 09:58:06,VALID,920.337,VALID,0.0,VALID,60.357,VALID,751.307,VALID,26.416,VALID,262.0,VALID,0.0,
2019-03-13, 09:59:06,VALID,920.348,VALID,0.0,VALID,61.416,VALID,749.879,VALID,26.405,VALID,289.0,VALID,0.0,
2019-03-13, 10:00:06,VALID,920.341,VALID,0.0,VALID,61.052,VALID,750.998,VALID,26.582,VALID,306.0,VALID,0.0,
2019-03-13, 10:01:06,VALID,920.329,VALID,0.0,VALID,58.283,VALID,765.019,VALID,26.696,VALID,231.0,VALID,0.0,
2019-03-13, 10:02:06,VALID,920.328,VALID,0.0,VALID,59.568,VALID,764.386,VALID,26.701,VALID,334.0,VALID,0.0,
2019-03-13, 10:03:06,VALID,920.321,VALID,0.0,VALID,61.196,VALID,763.782,VALID,26.831,VALID,25.0,VALID,0.0,
2019-03-13, 10:04:06,VALID,920.318,VALID,0.0,VALID,61.013,VALID,769.776,VALID,26.581,VALID,17.0,VALID,0.0,
2019-03-13, 10:05:06,VALID,920.32,VALID,0.0,VALID,62.372,VALID,771.143,VALID,26.144,VALID,12.0,VALID,0.0,
2019-03-13, 10:06:06,VALID,920.33,VALID,0.0,VALID,59.125,VALID,763.437,VALID,25.855,VALID,17.0,VALID,0.0,
2019-03-13, 10:07:06,VALID,920.315,VALID,0.0,VALID,59.357,VALID,762.498,VALID,25.829,VALID,54.0,VALID,0.0,
2019-03-13, 10:08:06,VALID,920.297,VALID,0.0,VALID,60.363,VALID,768.561,VALID,25.926,VALID,61.0,VALID,0.0,
2019-03-13, 10:09:06,VALID,920.282,VALID,0.0,VALID,61.572,VALID,743.854,VALID,26.218,VALID,78.0,VALID,0.0,
2019-03-13, 10:10:06,VALID,920.273,VALID,0.0,VALID,60.881,VALID,723.894,VALID,26.805,VALID,14.0,VALID,0.0,
2019-03-13, 10:11:06,VALID,920.276,VALID,0.0,VALID,61.205,VALID,753.637,VALID,27.102,VALID,24.0,VALID,0.0,
2019-03-13, 10:12:06,VALID,920.278,VALID,0.0,VALID,59.668,VALID,765.875,VALID,27.326,VALID,305.0,VALID,0.0,
2019-03-13, 10:13:06,VALID,920.274,VALID,0.0,VALID,60.203,VALID,774.457,VALID,27.37,VALID,22.0,VALID,0.0,
2019-03-13, 10:14:06,VALID,920.277,VALID,0.0,VALID,60.567,VALID,784.902,VALID,27.323,VALID,316.0,VALID,0.0,
2019-03-13, 10:15:06,VALID,920.298,VALID,0.0,VALID,56.701,VALID,799.348,VALID,26.843,VALID,280.0,VALID,0.0,
2019-03-13, 10:16:06,VALID,920.266,VALID,0.0,VALID,58.236,VALID,804.631,VALID,26.332,VALID,303.0,VALID,0.0,
2019-03-13, 10:17:06,VALID,920.281,VALID,0.0,VALID,60.277,VALID,809.306,VALID,26.332,VALID,300.0,VALID,0.0,
2019-03-13, 10:18:06,VALID,920.254,VALID,0.0,VALID,58.075,VALID,811.393,VALID,26.328,VALID,237.0,VALID,0.0,
2019-03-13, 10:19:06,VALID,920.255,VALID,0.0,VALID,59.431,VALID,815.834,VALID,26.248,VALID,247.0,VALID,0.0,
2019-03-13, 10:20:06,VALID,920.245,VALID,0.0,VALID,58.524,VALID,813.893,VALID,26.26,VALID,355.0,VALID,0.0,
2019-03-13, 10:21:06,VALID,920.222,VALID,0.0,VALID,59.471,VALID,790.783,VALID,26.352,VALID,9.0,VALID,0.0,
2019-03-13, 10:22:06,VALID,920.22,VALID,0.0,VALID,59.308,VALID,793.093,VALID,26.383,VALID,333.0,VALID,0.0,
2019-03-13, 10:23:06,VALID,920.209,VALID,0.0,VALID,59.785,VALID,776.809,VALID,26.291,VALID,345.0,VALID,0.0,
2019-03-13, 10:24:06,VALID,920.205,VALID,0.0,VALID,61.545,VALID,800.987,VALID,26.132,VALID,360.0,VALID,0.0,
2019-03-13, 10:25:06,VALID,920.204,VALID,0.0,VALID,60.984,VALID,816.611,VALID,26.261,VALID,259.0,VALID,0.0,
2019-03-13, 10:26:06,VALID,920.186,VALID,0.0,VALID,59.89,VALID,815.231,VALID,26.548,VALID,78.0,VALID,0.0,
2019-03-13, 10:27:06,VALID,920.181,VALID,0.0,VALID,59.684,VALID,813.702,VALID,26.779,VALID,315.0,VALID,0.0,
2019-03-13, 10:28:06,VALID,920.184,VALID,0.0,VALID,59.737,VALID,811.609,VALID,26.914,VALID,336.0,VALID,0.0,
2019-03-13, 10:29:06,VALID,920.184,VALID,0.0,VALID,60.53,VALID,818.234,VALID,27.187,VALID,273.0,VALID,0.0,
2019-03-13, 10:30:06,VALID,920.169,VALID,0.0,VALID,57.597,VALID,803.369,VALID,27.196,VALID,232.0,VALID,0.0,
2019-03-13, 10:31:06,VALID,920.158,VALID,0.0,VALID,59.221,VALID,783.917,VALID,26.538,VALID,232.0,VALID,0.0,
2019-03-13, 10:32:06,VALID,920.158,VALID,0.0,VALID,60.81,VALID,799.725,VALID,26.087,VALID,221.0,VALID,0.0,
2019-03-13, 10:33:06,VALID,920.127,VALID,0.0,VALID,61.377,VALID,821.854,VALID,26.096,VALID,12.0,VALID,0.0,
2019-03-13, 10:34:06,VALID,920.103,VALID,0.0,VALID,61.69,VALID,830.27,VALID,26.408,VALID,336.0,VALID,0.0,
2019-03-13, 10:35:06,VALID,920.118,VALID,0.0,VALID,59.109,VALID,837.449,VALID,26.666,VALID,334.0,VALID,0.0,
2019-03-13, 10:36:06,VALID,920.116,VALID,0.0,VALID,60.124,VALID,841.448,VALID,26.941,VALID,343.0,VALID,0.0,
2019-03-13, 10:37:06,VALID,920.094,VALID,0.0,VALID,58.584,VALID,845.035,VALID,27.311,VALID,17.0,VALID,0.0,
2019-03-13, 10:38:06,VALID,920.105,VALID,0.0,VALID,58.941,VALID,848.533,VALID,27.653,VALID,7.0,VALID,0.0,
2019-03-13, 10:39:06,VALID,920.115,VALID,0.0,VALID,55.066,VALID,853.968,VALID,27.785,VALID,277.0,VALID,0.0,